Home   Weather   Christchurch   Past weeks

Flag for New Zealand Past Weather in Christchurch, New Zealand — Yesterday and Last 2 Weeks

Now
64 °F

Mild.


Feels Like: 64 °F
Forecast: 53 / 70 °F
Wind: 8 mph from East

Location: Christchurch Airport

Current Time: Apr 27, 2017 at 1:36:29 pm

Latest Report: Apr 27, 2017 at 12:30 pm


Visibility: N/A

Pressure: 29.89 "Hg

Humidity: 68%

Dew Point: 54 °F

Location of ChristchurchLocation

Past Weather in Christchurch — Graph

°F

Christchurch Temperature Yesterday

Maximum temperature yesterday: 57 °F (at 12:30 pm)
Minimum temperature yesterday: 52 °F (at 11:30 pm)
Average temperature yesterday: 55 °F

High & Low Weather Summary for the Past Weeks

 TemperatureHumidityPressure
High73 °F (Apr 15, 2:00 pm)100% (Apr 12, 12:30 pm)30.39 "Hg (Apr 12, 12:30 pm)
Low39 °F (Apr 19, 6:00 am)36% (Apr 15, 3:30 pm)29.30 "Hg (Apr 14, 8:00 am)
Average54 °F86%29.99 "Hg
* Reported Apr 12 12:00 pm — Apr 27 12:30 pm, Christchurch, Weather by CustomWeather, © 2017

Note: Actual official high and low records may vary slightly from our data, if they occured in-between our weather recording intervals... More about our weather records

Advertising

Christchurch Weather History for the Previous 24 Hours

Scroll right to see more
 ConditionsComfort  
Time TempWeatherWind HumidityBarometerVisibility
12:30 pm
Thu, Apr 27
64 °FMild.8 mph68%29.89 "HgN/A
12:00 pm66 °FMild.6 mph52%29.92 "HgN/A
11:30 am63 °FMild.5 mph64%29.92 "HgN/A
11:00 am61 °FCool.2 mph77%29.92 "HgN/A
10:30 am57 °FCool.3 mph88%29.92 "HgN/A
9:30 am52 °FPartly sunny.2 mph100%29.92 "Hg4 mi
9:00 am50 °FFog.2 mph100%29.92 "Hg1 mi
8:30 am48 °FFog.3 mph100%29.92 "Hg0 mi
8:00 am48 °FFog.2 mph100%29.92 "Hg0 mi
7:30 am50 °FFog.3 mph100%29.92 "Hg0 mi
7:00 am48 °FFog.3 mph100%29.92 "Hg0 mi
6:30 am46 °FFog.2 mph100%29.92 "Hg0 mi
6:00 am48 °FFog.5 mph100%29.92 "Hg0 mi
5:30 am48 °FFog.2 mph100%29.92 "Hg0 mi
5:00 am46 °FFog.1 mph100%29.92 "Hg0 mi
4:30 am50 °FFog.5 mph100%29.92 "Hg0 mi
4:00 am50 °FFog.2 mph100%29.92 "Hg0 mi
3:30 am52 °FFog.2 mph100%29.92 "Hg0 mi
3:00 am52 °FFog.6 mph100%29.92 "Hg0 mi
2:30 am50 °FFog.3 mph100%29.92 "Hg0 mi
2:00 am50 °FFog.5 mph100%29.92 "Hg0 mi
1:30 am48 °FFog.3 mph100%29.92 "Hg0 mi
1:00 am46 °FFog.3 mph100%29.92 "Hg0 mi
12:30 am48 °FFog.5 mph100%29.95 "Hg0 mi
12:00 am52 °FFog.5 mph100%29.95 "Hg0 mi
11:30 pm
Wed, Apr 26
52 °FCool.6 mph100%29.95 "Hg4 mi
11:00 pm54 °FCool.7 mph100%29.95 "HgN/A
10:30 pm54 °FCool.8 mph100%29.95 "HgN/A
10:00 pm55 °FCool.7 mph94%29.95 "HgN/A
9:30 pm55 °FCool.10 mph94%29.95 "HgN/A
9:00 pm55 °FCool.9 mph94%29.92 "HgN/A
8:30 pm55 °FCool.12 mph94%29.92 "HgN/A
8:00 pm55 °FCool.10 mph94%29.92 "HgN/A
7:30 pm55 °FCool.9 mph94%29.92 "HgN/A
7:00 pm55 °FCool.8 mph94%29.92 "HgN/A
6:30 pm55 °FPassing clouds.8 mph94%29.92 "HgN/A
6:00 pm55 °FPassing clouds.12 mph94%29.92 "HgN/A
5:30 pm55 °FPartly sunny.12 mph94%29.92 "HgN/A
5:00 pm55 °FPassing clouds.14 mph88%29.92 "HgN/A
4:30 pm57 °FScattered clouds.14 mph82%29.92 "HgN/A
4:00 pm55 °FPartly sunny.17 mph88%29.95 "HgN/A
3:30 pm55 °FLow clouds.20 mph88%29.95 "HgN/A
3:00 pm55 °FLow clouds.16 mph88%29.95 "HgN/A
2:30 pm55 °FPartly sunny.16 mph88%29.95 "HgN/A
2:00 pm55 °FPartly sunny.16 mph88%29.95 "HgN/A
1:30 pm57 °FOvercast.15 mph82%29.95 "HgN/A
1:00 pm57 °FPartly sunny.14 mph82%29.98 "HgN/A
Weather by CustomWeather, © 2017

See weather overviewHow to use our weather pages